Location: Binningen
(47.7924°N, 8.7261°E)
Time: 22:55:06
(UTC+00:00)

JB-3 - Pass Details

Date: 17 May 2021
Orbit: 525 x 589 km, 97.3° (Epoch: 24 June)

Event Time Altitude Azimuth Distance (km) Brightness Sun altitude
Rises 21:00:30 0° 10° (N) 2,696 8.6 -15.6°
Reaches altitude 10° 21:02:39 10° 8° (N) 1,793 7.6 -15.8°
Maximum altitude 21:06:29 71° 285° (WNW) 563 4.4 -16.2°
Enters shadow 21:09:18 17° 203° (SSW) 1,364 6.0 -16.4°
